Overview Statistics Trail Chart Weather Telemetry Raw packets
 

This is the latest recevied weather packets stored in our database for station/object W8KVG. If no packets are shown the sender has not sent any weather packets the latest 10 day(s).

<< 59 60 61 62 63 64 65 >>
Time Temp. Humidity Pressure Rain* Wind** Luminosity Snow
1777485374 15.56° C 99% 1005.2 hPa 0 mm - 63 W/m² -
1777485070 15.56° C 99% 1005.1 hPa 0.51 mm - 101 W/m² -
1777484768 15.56° C 98% 1005.3 hPa 9.65 mm - 45 W/m² -
1777484464 16.67° C 98% 1005.1 hPa 8.38 mm - 70 W/m² -
1777484161 16.67° C 98% 1005.1 hPa 1.78 mm - 10 W/m² -
1777483857 16.67° C 98% 1005.1 hPa 1.27 mm - 49 W/m² -
1777483553 16.67° C 97% 1005.1 hPa 0.51 mm - 82 W/m² -
1777483248 16.67° C 97% 1005.4 hPa 0.51 mm - 72 W/m² -
1777482945 16.67° C 97% 1005.5 hPa 0 mm - 42 W/m² -
1777482641 16.67° C 97% 1005.6 hPa 0 mm - 78 W/m² -
1777482338 16.67° C 96% 1005.9 hPa 0 mm - 62 W/m² -
1777482036 16.67° C 97% 1006 hPa 0 mm - 68 W/m² -
1777481733 16.67° C 97% 1006 hPa 0 mm - 63 W/m² -
1777481430 16.67° C 97% 1006.2 hPa 0 mm - 124 W/m² -
1777481126 16.67° C 97% 1006.2 hPa 0 mm - 173 W/m² -
1777480823 16.67° C 97% 1006.5 hPa 0 mm - 110 W/m² -
1777480520 16.11° C 97% 1006.4 hPa 0 mm - 154 W/m² -
1777480216 16.11° C 97% 1006.6 hPa 0 mm - 143 W/m² -
1777479913 16.11° C 98% 1006.6 hPa 0 mm - 85 W/m² -
1777479609 16.11° C 98% 1006.5 hPa 0 mm - 128 W/m² -
1777479308 15.56° C 98% 1007 hPa 0 mm - 143 W/m² -
1777479004 15.56° C 98% 1007.1 hPa 0 mm - 114 W/m² -
1777478700 15.56° C 98% 1007.1 hPa 0 mm - 69 W/m² -
1777478397 15.56° C 98% 1007.3 hPa 0 mm - 84 W/m² -
1777478094 15.56° C 99% 1007.5 hPa 0 mm - 118 W/m² -

* Rain latest hour (hover to see other rain measurements)
** Current wind speed in m/s (hover to see current wind gust speed)